Location: Unspecified
(0.0000°N, 0.0000°E)
Time: 06:47:17
(UTC+00:00)

Hubble Space Telescope - Pass Details

Date: 30 May 2019
Orbit: 536 x 540 km, 28.5° (Epoch: 14 September)

Event Time Altitude Azimuth Distance (km) Brightness Sun altitude
Exits shadow 05:19:39 - 220° (SW) 1,920 3.0 -8.8°
Reaches altitude 10° 05:20:02 10° 218° (SW) 1,781 2.9 -8.7°
Maximum altitude 05:23:51 36° 150° (SSE) 851 1.9 -7.8°
Drops below altitude 10° 05:27:40 10° 82° (E) 1,780 5.0 -6.9°
Sets 05:30:02 0° 74° (ENE) 2,670 6.9 -6.4°
